Location: W�rzburg
(49.7529°N, 9.8822°E)
Time: 10:29:58
(UTC+02:00)

ISS - Pass Details

Date: 08 January 2018
Orbit: 402 x 409 km, 51.6° (Epoch: 21 August)

Event Time Altitude Azimuth Distance (km) Brightness Sun altitude
Exits shadow 05:12:41 18° 75° (ENE) 1,103 -0.9 -28.7°
Drops below altitude 10° 05:13:44 10° 79° (ENE) 1,514 0.0 -28.5°
Sets 05:15:52 0° 83° (E) 2,383 1.3 -28.2°
